Location: Dalton Gardens
(47.7327°N, 116.7697°W)
Time: 13:40:29
(UTC+00:00)

Envisat - Pass Details

Date: 02 December 2022
Orbit: 763 x 765 km, 98.2° (Epoch: 31 January)

Event Time Altitude Azimuth Distance (km) Brightness Sun altitude
Rises 13:17:19 0° 4° (N) 3,246 6.2 -19.2°
Reaches altitude 10° 13:19:56 10° 353° (N) 2,315 5.3 -18.8°
Enters shadow 13:22:17 21° 330° (NNW) 1,667 4.4 -18.4°
